Home > Weather > Wagga Wagga > Past weeks

Flag for Australia Past Weather in Wagga Wagga, New South Wales, Australia — Yesterday and Last 2 Weeks

Now
39 °F

Clear.


Feels Like: 39 °F
Forecast: 43 / 60 °F
Wind: 1 mph from Southeast

Location: Wagga Airport

Current Time: May 25, 2016 at 3:45:19 AM

Latest Report: May 25, 2016 at 3:00 AM


Visibility: N/A

Pressure: 30.09 "Hg

Humidity: 93%

Dew Point: 37 °F

Location of Wagga WaggaLocation

Past Weather in Wagga Wagga — Graph

°F

Wagga Wagga Temperature Yesterday

Maximum temperature yesterday: 59 °F (at 1:00 PM)
Minimum temperature yesterday: 41 °F (at 11:00 PM)
Average temperature yesterday: 51 °F

High & Low Weather Summary for the Past Weeks

 TemperatureHumidityPressure
High75 °F (May 22, 3:00 PM)100% (May 10, 7:00 AM)30.30 "Hg (May 10, 7:00 AM)
Low39 °F (May 25, 2:00 AM)38% (May 15, 3:00 PM)29.65 "Hg (May 10, 2:00 AM)
Average55 °F78%30.09 "Hg
* Reported May 10 2:00 AM — May 25 2:00 AM, Wagga Wagga, Weather by CustomWeather, © 2016

Note: Actual official high and low records may vary slightly from our data, if they occured in-between our weather recording intervals... More about our weather records

Advertising

Wagga Wagga Weather History for the Previous 24 Hours

Scroll right to see more
 ConditionsComfort  
Time TempWeatherWind HumidityBarometerVisibility
2:00 AM
Wed, May 25
39 °FClear.No wind100%30.09 "HgN/A
1:00 AM41 °FClear.5 mph93%30.09 "HgN/A
12:00 AM43 °FClear.2 mph87%30.12 "HgN/A
11:00 PM
Tue, May 24
41 °FClear.No wind93%30.12 "HgN/A
10:00 PM45 °FClear.3 mph87%30.12 "HgN/A
9:00 PM46 °FClear.2 mph82%30.12 "HgN/A
8:00 PM48 °FClear.3 mph76%30.12 "HgN/A
7:00 PM50 °FClear.6 mph71%30.12 "HgN/A
6:00 PM52 °FClear.6 mph72%30.09 "HgN/A
5:00 PM54 °FPassing clouds.8 mph67%30.09 "HgN/A
4:00 PM59 °FPassing clouds.15 mph51%30.09 "HgN/A
3:00 PM59 °FScattered clouds.20 mph48%30.07 "HgN/A
2:00 PM59 °FScattered clouds.20 mph48%30.09 "HgN/A
1:00 PM59 °FScattered clouds.17 mph51%30.09 "HgN/A
12:00 PM57 °FScattered clouds.17 mph63%30.12 "HgN/A
11:00 AM55 °FPartly sunny.15 mph67%30.15 "HgN/A
10:00 AM52 °FPartly sunny.13 mph77%30.15 "HgN/A
9:00 AM52 °FPartly sunny.10 mph82%30.15 "HgN/A
8:00 AM50 °FPartly sunny.8 mph88%30.15 "HgN/A
7:00 AM46 °FScattered clouds.8 mph93%30.15 "HgN/A
6:00 AM48 °FOvercast.6 mph87%30.12 "Hg4 mi
5:00 AM46 °FPassing clouds.3 mph87%30.12 "HgN/A
4:00 AM45 °FPassing clouds.2 mph87%30.12 "Hg6 mi
3:00 AM46 °FPassing clouds.8 mph82%30.12 "Hg3 mi
Weather by CustomWeather, © 2016

See weather overviewHow to use our weather pages